H1 CPF 2 NER 2024 2 29 9 060 01 glonass132 H2 1401201 9132 39620 2024 2 29 0 0 0 2024 3 3 23 45 0 900 1 1 0 0 0 1 H9 10 0 60369 0.00000 0 16500557.938 -7059354.466 18168953.231 10 0 60369 900.00000 0 18608989.986 -7126775.109 15975676.431 10 0 60369 1800.00000 0 20418198.943 -7344250.183 13473260.145 10 0 60369 2700.00000 0 21884212.763 -7666291.868 10710150.184 10 0 60369 3600.00000 0 22974620.692 -8040806.566 7739813.178 10 0 60369 4500.00000 0 23669768.093 -8411477.420 4619713.508 10 0 60369 5400.00000 0 23963437.332 -8720333.646 1410214.059 10 0 60369 6300.00000 0 23862986.742 -8910399.320 -1826579.111 10 0 60369 7200.00000 0 23388941.932 -8928310.682 -5028006.847 10 0 60369 8100.00000 0 22574056.480 -8726792.236 -8132059.582 10 0 60369 9000.00000 0 21461880.531 -8266887.336 -11078570.177 10 0 60369 9900.00000 0 20104896.456 -7519848.914 -13810374.317 10 0 60369 10800.00000 0 18562298.661 -6468609.785 -16274416.416 10 0 60369 11700.00000 0 16897509.440 -5108769.085 -18422779.815 10 0 60369 12600.00000 0 15175534.064 -3449051.326 -20213621.296 10 0 60369 13500.00000 0 13460265.128 -1511216.326 -21611991.598 10 0 60369 14400.00000 0 11811848.598 670579.023 -22590525.631 10 0 60369 15300.00000 0 10284221.716 3050943.258 -23129988.355 10 0 60369 16200.00000 0 8922926.061 5574891.279 -23219664.882 10 0 60369 17100.00000 0 7763287.825 8179897.687 -22857586.179 10 0 60369 18000.00000 0 6829042.306 10798278.756 -22050584.757 10 0 60369 18900.00000 0 6131461.100 13359805.105 -20814177.960 10 0 60369 19800.00000 0 5669019.486 15794436.810 -19172279.766 10 0 60369 20700.00000 0 5427618.655 18035066.870 -17156745.519 10 0 60369 21600.00000 0 5381353.855 20020157.968 -14806757.431 10 0 60369 22500.00000 0 5493796.078 21696161.365 -12168062.190 10 0 60369 23400.00000 0 5719732.737 23019615.523 -9292075.331 10 0 60369 24300.00000 0 6007292.790 23958835.328 -6234870.145 10 0 60369 25200.00000 0 6300364.938 24495120.105 -3056071.617 10 0 60369 26100.00000 0 6541204.646 24623429.121 182321.722 10 0 60369 27000.00000 0 6673117.424 24352496.229 3417163.453 10 0 60369 27900.00000 0 6643102.510 23704379.480 6585406.749 10 0 60369 28800.00000 0 6404342.910 22713465.916 9625347.497 10 0 60369 29700.00000 0 5918434.639 21424975.217 12477837.230 10 0 60369 30600.00000 0 5157259.594 19893027.159 15087440.976 10 0 60369 31500.00000 0 4104422.189 18178356.329 17403516.691 10 0 60369 32400.00000 0 2756188.928 16345771.983 19381195.088 10 0 60369 33300.00000 0 1121891.589 14461471.153 20982241.250 10 0 60369 34200.00000 0 -776222.392 12590318.498 22175782.204 10 0 60369 35100.00000 0 -2903685.367 10793206.915 22938887.794 10 0 60369 36000.00000 0 -5215021.026 9124608.603 23256995.262 10 0 60369 36900.00000 0 -7655421.018 7630417.548 23124171.142 10 0 60369 37800.00000 0 -10162816.663 6346171.529 22543207.181 10 0 60369 38700.00000 0 -12670259.852 5295725.485 21525549.960 10 0 60369 39600.00000 0 -15108514.902 4490429.081 20091066.811 10 0 60369 40500.00000 0 -17408754.841 3928840.322 18267653.333 10 0 60369 41400.00000 0 -19505251.634 3596984.991 16090690.389 10 0 60369 42300.00000 0 -21337950.211 3469149.276 13602361.022 10 0 60369 43200.00000 0 -22854821.051 3509171.173 10850839.926 10 0 60369 44100.00000 0 -24013895.054 3672175.848 7889370.350 10 0 60369 45000.00000 0 -24784897.339 3906681.990 4775245.292 10 0 60369 45900.00000 0 -25150412.928 4156990.884 1568711.534 10 0 60369 46800.00000 0 -25106536.164 4365758.262 -1668183.399 10 0 60369 47700.00000 0 -24662976.974 4476641.291 -4872780.074 10 0 60369 48600.00000 0 -23842619.065 4436909.666 -7983009.728 10 0 60369 49500.00000 0 -22680547.891 4199911.073 -10938588.094 10 0 60369 50400.00000 0 -21222588.210 3727287.027 -13682177.870 10 0 60369 51300.00000 0 -19523411.090 2990845.095 -16160497.784 10 0 60369 52200.00000 0 -17644288.365 1974007.498 -18325356.959 10 0 60369 53100.00000 0 -15650587.307 672773.469 -20134594.525 10 0 60369 54000.00000 0 -13609109.227 -903847.327 -21552906.111 10 0 60369 54900.00000 0 -11585382.482 -2733951.067 -22552540.805 10 0 60369 55800.00000 0 -9641022.594 -4783403.660 -23113854.395 10 0 60369 56700.00000 0 -7831269.644 -7007027.292 -23225707.368 10 0 60369 57600.00000 0 -6202806.065 -9350262.640 -22885698.852 10 0 60369 58500.00000 0 -4791946.528 -11751239.551 -22100230.759 10 0 60369 59400.00000 0 -3623276.315 -14143171.391 -20884399.545 10 0 60369 60300.00000 0 -2708795.842 -16456974.165 -19261716.375 10 0 60369 61200.00000 0 -2047607.862 -18624001.327 -17263659.888 10 0 60369 62100.00000 0 -1626160.815 -20578779.671 -14929069.299 10 0 60369 63000.00000 0 -1419038.124 -22261631.041 -12303388.941 10 0 60369 63900.00000 0 -1390259.740 -23621068.783 -9437778.798 10 0 60369 64800.00000 0 -1495040.094 -24615867.115 -6388108.632 10 0 60369 65700.00000 0 -1681926.706 -25216715.232 -3213856.071 10 0 60369 66600.00000 0 -1895227.151 -25407385.616 23068.560 10 0 60369 67500.00000 0 -2077619.420 -25185366.915 3259546.158 10 0 60369 68400.00000 0 -2172832.844 -24561934.809 6432495.874 10 0 60369 69300.00000 0 -2128283.756 -23561658.602 9480119.065 10 0 60369 70200.00000 0 -1897552.312 -22221365.567 12343114.310 10 0 60369 71100.00000 0 -1442594.103 -20588608.291 14965838.541 10 0 60369 72000.00000 0 -735592.029 -18719701.365 17297390.842 10 0 60369 72900.00000 0 239630.198 -16677411.704 19292597.638 10 0 60369 73800.00000 0 1486692.470 -14528400.939 20912880.518 10 0 60369 74700.00000 0 2996278.684 -12340528.085 22126990.730 10 0 60369 75600.00000 0 4746308.366 -10180125.675 22911597.518 10 0 60369 76500.00000 0 6702651.599 -8109362.805 23251720.567 10 0 60369 77400.00000 0 8820356.704 -6183804.030 23140999.994 10 0 60369 78300.00000 0 11045339.061 -4450264.116 22581800.440 10 0 60369 79200.00000 0 13316460.680 -2945045.780 21585148.803 10 0 60369 80100.00000 0 15567914.338 -1692631.276 20170508.041 10 0 60369 81000.00000 0 17731813.928 -704879.730 18365392.247 10 0 60369 81900.00000 0 19740884.478 19238.868 16204830.751 10 0 60369 82800.00000 0 21531141.346 493364.047 13730691.544 10 0 60369 83700.00000 0 23044448.667 742933.047 10990876.618 10 0 60369 84600.00000 0 24230851.969 803871.969 8038403.954 10 0 60369 85500.00000 0 25050589.122 720845.386 4930392.947 10 0 60370 0.00000 0 25475696.711 545138.030 1726972.059 10 0 60370 900.00000 0 25491145.483 332257.209 -1509873.038 10 0 60370 1800.00000 0 25095457.101 139356.608 -4717485.283 10 0 60370 2700.00000 0 24300776.748 22589.104 -7833739.729 10 0 60370 3600.00000 0 23132397.254 34499.935 -10798237.945 10 0 60370 4500.00000 0 21627753.761 221569.853 -13553472.496 10 0 60370 5400.00000 0 19834929.608 622012.071 -16045939.079 10 0 60370 6300.00000 0 17810734.401 1263916.531 -18227174.990 10 0 60370 7200.00000 0 15618433.046 2163820.955 -20054703.848 10 0 60370 8100.00000 0 13325219.288 3325770.573 -21492868.047 10 0 60370 9000.00000 0 10999538.103 4740908.320 -22513532.449 10 0 60370 9900.00000 0 8708367.872 6387615.261 -23096644.996 10 0 60370 10800.00000 0 6514575.265 8232198.096 -23230642.572 10 0 60370 11700.00000 0 4474453.081 10230097.617 -22912693.163 10 0 60370 12600.00000 0 2635544.021 12327569.930 -22148768.410 10 0 60370 13500.00000 0 1034841.703 14463772.092 -20953543.828 10 0 60370 14400.00000 0 -302555.315 16573166.272 -19350127.304 10 0 60370 15300.00000 0 -1364279.598 18588142.537 -17369619.907 10 0 60370 16200.00000 0 -2150985.577 20441750.453 -15050516.570 10 0 60370 17100.00000 0 -2676082.639 22070424.432 -12437957.595 10 0 60370 18000.00000 0 -2964922.139 23416587.384 -9582845.371 10 0 60370 18900.00000 0 -3053473.380 24431021.917 -6540843.735 10 0 60370 19800.00000 0 -2986545.777 25074907.925 -3371280.268 10 0 60370 20700.00000 0 -2815634.105 25321439.487 -135974.161 10 0 60370 21600.00000 0 -2596480.160 25156952.008 3101985.898 10 0 60370 22500.00000 0 -2386456.399 24581511.670 6279488.221 10 0 60370 23400.00000 0 -2241884.719 23608942.492 9334642.825 10 0 60370 24300.00000 0 -2215406.100 22266290.594 12207998.455 10 0 60370 25200.00000 0 -2353514.233 20592749.435 14843706.928 10 0 60370 26100.00000 0 -2694358.698 18638092.772 17190611.251 10 0 60370 27000.00000 0 -3265911.241 16460682.819 19203236.132 10 0 60370 27900.00000 0 -4084572.585 14125138.642 20842661.974 10 0 60370 28800.00000 0 -5154278.105 11699763.579 22077266.253 10 0 60370 29700.00000 0 -6466139.256 9253839.854 22883319.291 10 0 60370 30600.00000 0 -7998634.923 6854903.206 23245424.515 10 0 60370 31500.00000 0 -9718343.792 4566110.368 23156796.500 10 0 60370 32400.00000 0 -11581186.470 2443807.561 22619373.186 10 0 60370 33300.00000 0 -13534125.121 535399.092 21643761.675 10 0 60370 34200.00000 0 -15517249.762 -1122397.685 20249019.914 10 0 60370 35100.00000 0 -17466164.742 -2504841.140 18462279.305 10 0 60370 36000.00000 0 -19314576.859 -3599946.867 16318215.937 10 0 60370 36900.00000 0 -20996978.439 -4408731.795 13858380.575 10 0 60370 37800.00000 0 -22451314.872 -4944912.798 11130399.921 10 0 60370 38700.00000 0 -23621526.845 -5234074.015 8187063.773 10 0 60370 39600.00000 0 -24459862.424 -5312338.753 5085314.783 10 0 60370 40500.00000 0 -24928863.398 -5224602.146 1885159.226 10 0 60370 41400.00000 0 -25002943.631 -5022398.825 -1351481.295 10 0 60370 42300.00000 0 -24669493.406 -4761494.896 -4561956.037 10 0 60370 43200.00000 0 -23929463.332 -4499305.090 -7684087.206 10 0 60370 44100.00000 0 -22797402.597 -4292243.345 -10657365.487 10 0 60370 45000.00000 0 -21300948.769 -4193118.113 -13424116.450 10 0 60370 45900.00000 0 -19479788.996 -4248682.023 -15930615.682 10 0 60370 46800.00000 0 -17384134.231 -4497439.522 -18128131.301 10 0 60370 47700.00000 0 -15072768.501 -4967805.632 -19973873.662 10 0 60370 48600.00000 0 -12610752.939 -5676694.678 -21431833.685 10 0 60370 49500.00000 0 -10066878.828 -6628600.145 -22473493.208 10 0 60370 50400.00000 0 -7510974.684 -7815206.562 -23078392.922 10 0 60370 51300.00000 0 -5011178.707 -9215552.146 -23234546.099 10 0 60370 52200.00000 0 -2631289.820 -10796737.961 -22938689.003 10 0 60370 53100.00000 0 -428307.616 -12515156.248 -22196361.923 10 0 60370 54000.00000 0 1549735.971 -14318188.556 -21021817.921 10 0 60370 54900.00000 0 3265562.332 -16146304.119 -19437759.740 10 0 60370 55800.00000 0 4693974.035 -17935471.486 -17474908.737 10 0 60370 56700.00000 0 5822668.808 -19619782.553 -15171413.203 10 0 60370 57600.00000 0 6652505.354 -21134178.496 -12572106.891 10 0 60370 58500.00000 0 7197209.902 -22417162.132 -9727631.954 10 0 60370 59400.00000 0 7482536.492 -23413381.247 -6693443.609 10 0 60370 60300.00000 0 7544917.473 -24075972.593 -3528716.662 10 0 60370 61200.00000 0 7429662.810 -24368566.166 -295176.461 10 0 60370 62100.00000 0 7188786.353 -24266863.959 2944121.385 10 0 60370 63000.00000 0 6878553.350 -23759725.670 6126036.925 10 0 60370 63900.00000 0 6556855.437 -22849715.179 9188591.295 10 0 60370 64800.00000 0 6280526.542 -21553084.970 12072185.718 10 0 60370 65700.00000 0 6102715.313 -19899199.872 14720769.014 10 0 60370 66600.00000 0 6070426.701 -17929425.530 17082930.006 10 0 60370 67500.00000 0 6222337.532 -15695529.685 19112893.301 10 0 60370 68400.00000 0 6586978.566 -13257664.691 20771399.421 10 0 60370 69300.00000 0 7181359.368 -10682016.937 22026453.043 10 0 60370 70200.00000 0 8010093.150 -8038222.143 22853926.181 10 0 60370 71100.00000 0 9065057.339 -5396654.524 23238006.267 10 0 60370 72000.00000 0 10325602.972 -2825702.272 23171482.262 10 0 60370 72900.00000 0 11759303.154 -389141.558 22655865.039 10 0 60370 73800.00000 0 13323208.519 1856283.588 21701341.275 10 0 60370 74700.00000 0 14965556.845 3862977.181 20326563.039 10 0 60370 75600.00000 0 16627865.484 5594217.584 18558277.995 10 0 60370 76500.00000 0 18247319.789 7025425.163 16430807.751 10 0 60370 77400.00000 0 19759358.672 8144921.045 13985384.429 10 0 60370 78300.00000 0 21100350.500 8954147.707 11269357.839 10 0 60370 79200.00000 0 22210248.808 9467344.056 8335287.791 10 0 60370 80100.00000 0 23035118.003 9710689.907 5239938.177 10 0 60370 81000.00000 0 23529424.616 9720956.625 2043191.147 10 0 60370 81900.00000 0 23657998.831 9543720.719 -1193098.746 10 0 60370 82800.00000 0 23397584.341 9231215.276 -4406289.334 10 0 60370 83700.00000 0 22737911.577 8839909.264 -7534152.574 10 0 60370 84600.00000 0 21682248.469 8427915.939 -10516070.833 10 0 60370 85500.00000 0 20247404.532 8052339.010 -13294205.159 10 0 60371 0.00000 0 18463186.751 7766668.013 -15814613.133 10 0 60371 900.00000 0 16371326.961 7618332.387 -18028296.270 10 0 60371 1800.00000 0 14023926.001 7646518.021 -19892153.330 10 0 60371 2700.00000 0 11481474.371 7880338.519 -21369825.463 10 0 60371 3600.00000 0 8810532.324 8337439.837 -22432412.978 10 0 60371 4500.00000 0 6081163.592 9023098.551 -23059050.604 10 0 60371 5400.00000 0 3364228.490 9929853.764 -23237329.048 10 0 60371 6300.00000 0 728648.251 11037690.347 -22963553.618 10 0 60371 7200.00000 0 -1761245.862 12314768.106 -22242833.676 10 0 60371 8100.00000 0 -4048168.267 13718668.321 -21088999.881 10 0 60371 9000.00000 0 -6084036.942 15198107.048 -19524349.465 10 0 60371 9900.00000 0 -7831742.887 16695044.419 -17579223.281 10 0 60371 10800.00000 0 -9266456.691 18147101.833 -15291421.783 10 0 60371 11700.00000 0 -10376417.130 19490185.341 -12705470.607 10 0 60371 12600.00000 0 -11163168.570 20661204.031 -9871749.771 10 0 60371 13500.00000 0 -11641237.553 21600767.692 -6845503.692 10 0 60371 14400.00000 0 -11837262.964 22255748.423 -3685751.992 10 0 60371 15300.00000 0 -11788617.821 22581596.380 -454123.575 10 0 60371 16200.00000 0 -11541582.720 22544310.299 2786361.760 10 0 60371 17100.00000 0 -11149150.333 22121978.268 5972538.634 10 0 60371 18000.00000 0 -10668556.228 21305822.838 9042342.187 10 0 60371 18900.00000 0 -10158642.900 20100706.092 11936029.007 10 0 60371 19800.00000 0 -9677170.657 18525073.580 14597347.764 10 0 60371 20700.00000 0 -9278190.844 16610340.250 16974635.843 10 0 60371 21600.00000 0 -9009593.547 14399745.230 19021820.355 10 0 60371 22500.00000 0 -8910933.792 11946724.668 20699304.354 10 0 60371 23400.00000 0 -9011627.743 9312871.940 21974721.884 10 0 60371 24300.00000 0 -9329594.129 6565571.261 22823548.519 10 0 60371 25200.00000 0 -9870396.900 3775403.755 23229557.226 10 0 60371 26100.00000 0 -10626923.744 1013433.833 23185112.491 10 0 60371 27000.00000 0 -11579612.585 -1651512.156 22691298.804 10 0 60371 27900.00000 0 -12697215.382 -4155463.417 21757882.627 10 0 60371 28800.00000 0 -13938066.398 -6441711.596 20403109.861 10 0 60371 29700.00000 0 -15251801.450 -8462909.517 18653343.615 10 0 60371 30600.00000 0 -16581456.320 -10182777.185 16542549.703 10 0 60371 31500.00000 0 -17865857.018 -11577346.642 14111639.823 10 0 60371 32400.00000 0 -19042202.812 -12635696.319 11407684.681 10 0 60371 33300.00000 0 -20048734.987 -13360146.284 8483011.537 10 0 60371 34200.00000 0 -20827380.747 -13765907.835 5394202.675 10 0 60371 35100.00000 0 -21326262.596 -13880203.206 2201013.052 10 0 60371 36000.00000 0 -21501968.804 -13740892.756 -1034773.069 10 0 60371 36900.00000 0 -21321490.201 -13394667.329 -4250525.432 10 0 60371 37800.00000 0 -20763741.930 -12894881.341 -7383969.150 10 0 60371 38700.00000 0 -19820605.738 -12299117.185 -10374381.705 10 0 60371 39600.00000 0 -18497448.099 -11666582.851 -13163762.989 10 0 60371 40500.00000 0 -16813090.749 -11055451.632 -15697956.263 10 0 60371 41400.00000 0 -14799232.911 -10520255.586 -17927698.553 10 0 60371 42300.00000 0 -12499347.146 -10109442.413 -19809580.193 10 0 60371 43200.00000 0 -9967092.561 -9863198.893 -21306894.796 10 0 60371 44100.00000 0 -7264309.334 -9811633.286 -22390362.816 10 0 60371 45000.00000 0 -4458676.099 -9973394.344 -23038714.071 10 0 60371 45900.00000 0 -1621126.059 -10354786.594 -23239117.112 10 0 60371 46800.00000 0 1176871.921 -10949420.921 -22987446.073 10 0 60371 47700.00000 0 3866054.807 -11738417.128 -22288378.608 10 0 60371 48600.00000 0 6382015.697 -12691151.829 -21155321.696 10 0 60371 49500.00000 0 8667652.385 -13766521.948 -19610165.368 10 0 60371 50400.00000 0 10675311.655 -14914671.915 -17682867.926 10 0 60371 51300.00000 0 12368539.180 -16079112.577 -15410879.635 10 0 60371 52200.00000 0 13723361.276 -17199142.729 -12838415.391 10 0 60371 53100.00000 0 14729044.410 -18212470.603 -10015590.226 10 0 60371 54000.00000 0 15388300.549 -19057923.677 -6997434.704 10 0 60371 54900.00000 0 15716930.199 -19678130.828 -3842810.072 10 0 60371 55800.00000 0 15742919.108 -20022061.774 -613245.526 10 0 60371 56700.00000 0 15505028.307 -20047314.641 2628278.205 10 0 60371 57600.00000 0 15050938.981 -19722053.369 5818573.473 10 0 60371 58500.00000 0 14435032.871 -19026511.789 8895492.396 10 0 60371 59400.00000 0 13715904.428 -17954000.120 11799149.635 10 0 60371 60300.00000 0 12953712.171 -16511371.160 14473096.087 10 0 60371 61200.00000 0 12207483.114 -14718926.832 16865419.701 10 0 60371 62100.00000 0 11532485.521 -12609769.710 18929751.691 10 0 60371 63000.00000 0 10977781.556 -10228627.692 20626158.814 10 0 60371 63900.00000 0 10584063.074 -7630202.034 21921905.223 10 0 60371 64800.00000 0 10381861.000 -4877108.682 22792070.386 10 0 60371 65700.00000 0 10390202.455 -2037499.232 23220012.734 10 0 60371 66600.00000 0 10615770.492 817539.349 23197671.832 10 0 60371 67500.00000 0 11052599.990 3616698.680 22725705.021 10 0 60371 68400.00000 0 11682320.850 6291165.047 21813457.498 10 0 60371 69300.00000 0 12474936.910 8777226.496 20478767.708 10 0 60371 70200.00000 0 13390106.978 11018664.867 18747612.727 10 0 60371 71100.00000 0 14378873.867 12968835.855 16653600.936 10 0 60371 72000.00000 0 15385769.012 14592353.118 14237321.821 10 0 60371 72900.00000 0 16351204.962 15866308.795 11545565.080 10 0 60371 73800.00000 0 17214056.277 16780981.688 8630423.375 10 0 60371 74700.00000 0 17914321.604 17340005.330 5548295.204 10 0 60371 75600.00000 0 18395756.299 17559990.183 2358806.042 10 0 60371 76500.00000 0 18608365.928 17469616.435 -876332.509 10 0 60371 77400.00000 0 18510656.556 17108235.682 -4094504.529 10 0 60371 78300.00000 0 18071547.360 16524039.871 -7233390.697 10 0 60371 79200.00000 0 17271864.945 15771873.976 -10232165.930 10 0 60371 80100.00000 0 16105355.644 14910783.589 -13032671.176 10 0 60371 81000.00000 0 14579171.897 14001399.821 -15580537.180 10 0 60371 81900.00000 0 12713810.350 13103270.826 -17826238.763 10 0 60371 82800.00000 0 10542501.895 12272251.756 -19726059.213 10 0 60371 83700.00000 0 8110076.656 11558062.809 -21242946.031 10 0 60371 84600.00000 0 5471348.729 11002118.394 -22347241.055 10 0 60371 85500.00000 0 2689085.645 10635719.323 -23017270.227 10 0 60372 0.00000 0 -168354.718 10478685.154 -23239780.749 10 0 60372 900.00000 0 -3029624.632 10538485.479 -23010216.153 10 0 60372 1800.00000 0 -5823113.526 10809908.444 -22332822.543 10 0 60372 2700.00000 0 -8479693.716 11275281.748 -21220583.019 10 0 60372 3600.00000 0 -10935366.882 11905238.612 -19694979.803 10 0 60372 4500.00000 0 -13133702.148 12659997.532 -17785587.624 10 0 60372 5400.00000 0 -15027963.216 13491102.719 -15529505.160 10 0 60372 6300.00000 0 -16582834.937 14343552.061 -12970634.850 10 0 60372 7200.00000 0 -17775676.352 15158222.434 -10158824.776 10 0 60372 8100.00000 0 -18597247.300 15874488.972 -7148889.515 10 0 60372 9000.00000 0 -19051878.058 16432926.156 -3999529.679 10 0 60372 9900.00000 0 -19157075.437 16777974.678 -772172.413 10 0 60372 10800.00000 0 -18942583.040 16860459.344 2470243.035 10 0 60372 11700.00000 0 -18448936.966 16639849.604 5664509.217 10 0 60372 12600.00000 0 -17725580.017 16086165.511 8748397.747 10 0 60372 13500.00000 0 -16828616.325 15181447.356 11661883.903 10 0 60372 14400.00000 0 -15818303.578 13920726.287 14348323.359 10 0 60372 15300.00000 0 -14756390.788 12312454.808 16755557.137 10 0 60372 16200.00000 0 -13703415.589 10378379.443 18836922.940 10 0 60372 17100.00000 0 -12716076.023 8152861.497 20552153.464 10 0 60372 18000.00000 0 -11844787.811 5681675.309 21868144.970 10 0 60372 18900.00000 0 -11131529.430 3020335.004 22759582.532 10 0 60372 19800.00000 0 -10608064.470 232020.194 23209411.421 10 0 60372 20700.00000 0 -10294614.308 -2614812.760 23209147.296 10 0 60372 21600.00000 0 -10199034.843 -5449034.832 22759020.973 10 0 60372 22500.00000 0 -10316529.794 -8199556.452 21867956.585 10 0 60372 23400.00000 0 -10629910.739 -10798036.397 20553384.905 10 0 60372 24300.00000 0 -11110391.402 -13181476.825 18840896.334 10 0 60372 25200.00000 0 -11718881.884 -15294598.923 16763740.772 10 0 60372 26100.00000 0 -12407727.969 -17091902.744 14362184.065 10 0 60372 27000.00000 0 -13122822.586 -18539327.867 11682733.112 10 0 60372 27900.00000 0 -13806001.222 -19615447.921 8777243.902 10 0 60372 28800.00000 0 -14397621.491 -20312150.916 5701928.814 10 0 60372 29700.00000 0 -14839219.363 -20634778.249 2516281.283 10 0 60372 30600.00000 0 -15076131.385 -20601717.590 -718062.485 10 0 60372 31500.00000 0 -15059973.258 -20243466.806 -3938503.809 10 0 60372 32400.00000 0 -14750870.863 -19601208.079 -7082681.987 10 0 60372 33300.00000 0 -14119349.853 -18724951.614 -10089672.544 10 0 60372 34200.00000 0 -13147803.666 -17671326.046 -12901160.721 10 0 60372 35100.00000 0 -11831477.070 -16501107.511 -15462567.990 10 0 60372 36000.00000 0 -10178922.152 -15276590.265 -17724110.101 10 0 60372 36900.00000 0 -8211905.376 -14058908.592 -19641766.219 10 0 60372 37800.00000 0 -5964767.011 -12905422.031 -21178140.309 10 0 60372 38700.00000 0 -3483256.981 -11867273.586 -22303197.714 10 0 60372 39600.00000 0 -822893.040 -10987223.725 -22994862.081 10 0 60372 40500.00000 0 1953092.767 -10297851.696 -23239460.255 10 0 60372 41400.00000 0 4776135.912 -9820200.632 -23032005.493 10 0 60372 42300.00000 0 7574951.884 -9562924.551 -22376312.276 10 0 60372 43200.00000 0 10278271.605 -9521974.350 -21284939.170 10 0 60372 44100.00000 0 12817586.331 -9680837.276 -19778959.459 10 0 60372 45000.00000 0 15129787.436 -10011320.842 -17887562.747 10 0 60372 45900.00000 0 17159590.452 -10474848.884 -15647494.160 10 0 60372 46800.00000 0 18861641.273 -11024215.363 -13102341.316 10 0 60372 47700.00000 0 20202215.484 -11605721.556 -10301682.602 10 0 60372 48600.00000 0 21160438.854 -12161605.497 -7300113.499 10 0 60372 49500.00000 0 21728977.351 -12632659.516 -4156170.582 10 0 60372 50400.00000 0 21914167.700 -12960923.363 -931175.334 10 0 60372 51300.00000 0 21735583.638 -13092336.870 2311978.175 10 0 60372 52200.00000 0 21225057.355 -12979237.813 5510066.356 10 0 60372 53100.00000 0 20425199.104 -12582597.377 8600783.801 10 0 60372 54000.00000 0 19387479.540 -11873897.148 11523969.608 10 0 60372 54900.00000 0 18169957.920 -10836567.258 14222787.038 10 0 60372 55800.00000 0 16834754.125 -9466924.459 16644832.553 10 0 60372 56700.00000 0 15445372.908 -7774570.612 18743152.255 10 0 60372 57600.00000 0 14063994.280 -5782235.193 20477146.186 10 0 60372 58500.00000 0 12748844.689 -3525069.098 21813343.658 10 0 60372 59400.00000 0 11551759.241 -1049420.046 22726035.824 10 0 60372 60300.00000 0 10516036.434 1588858.644 23197754.833 10 0 60372 61200.00000 0 9674673.842 4326495.015 23219592.047 10 0 60372 62100.00000 0 9049056.673 7095194.348 22791350.965 10 0 60372 63000.00000 0 8648151.881 9824244.917 21921533.521 10 0 60372 63900.00000 0 8468239.337 12443226.397 20627161.350 10 0 60372 64800.00000 0 8493189.226 14884709.977 18933436.457 10 0 60372 65700.00000 0 8695272.406 17086839.958 16873248.309 10 0 60372 66600.00000 0 9036468.561 18995691.608 14486536.975 10 0 60372 67500.00000 0 9470216.719 20567309.424 11819524.280 10 0 60372 68400.00000 0 9943534.541 21769342.954 8923827.126 10 0 60372 69300.00000 0 10399417.741 22582213.739 5855469.251 10 0 60372 70200.00000 0 10779419.456 22999766.106 2673809.455 10 0 60372 71100.00000 0 11026301.869 23029375.509 -559594.096 10 0 60372 72000.00000 0 11086649.226 22691510.172 -3782162.591 10 0 60372 72900.00000 0 10913332.818 22018764.492 -6931496.495 10 0 60372 73800.00000 0 10467724.217 21054403.980 -9946574.353 10 0 60372 74700.00000 0 9721563.252 19850482.104 -12768927.927 10 0 60372 75600.00000 0 8658401.365 18465607.119 -15343771.415 10 0 60372 76500.00000 0 7274558.030 16962451.331 -17621063.255 10 0 60372 77400.00000 0 5579548.092 15405106.366 -19556480.016 10 0 60372 78300.00000 0 3595959.633 13856394.572 -21112283.411 10 0 60372 79200.00000 0 1358784.685 12375248.779 -22258063.347 10 0 60372 80100.00000 0 -1085772.052 11014270.132 -22971341.994 10 0 60372 81000.00000 0 -3681959.509 9817566.551 -23238026.383 10 0 60372 81900.00000 0 -6366554.532 8818962.983 -23052699.759 10 0 60372 82800.00000 0 -9071259.668 8040659.325 -22418744.783 10 0 60372 83700.00000 0 -11725325.956 7492393.283 -21348294.908 10 0 60372 84600.00000 0 -14258292.228 7171144.321 -19862013.466 10 0 60372 85500.00000 0 -16602726.814 7061392.053 -17988703.495 99